SCP
3 2 2 2 3 3 3 2 2 2 2 2 1 1 1 1 2 2 2 2 2 2 2 2 2 2 3 3 3 3 3 3 2 2 2 2 2 2 2 2 2 2 2
3 2 2 2 3 3 3 3 3 2 2 2 1 1 1 1 1 1 2 2 2 2 2 2 2 2 2 3 3 2 2 2 2 2 2 2 2 2 2 2 2 2 2
3 3 2 2 2 3 3 3 3 3 2 2 2 1 1 1 1 1 1 1 2 2 2 2 2 2 2 2 2 2 2 2 2 2 2 2 2 2 1 2 2 2 2
3 3 3 2 2 2 2 2 2 2 2 2 1 1 1 1 1 0 1 1 1 2 2 2 2 2 2 2 2 2 1 1 2 2 2 2 2 2 1 1 1 1 2
3 3 3 3 2 2 2 1 1 1 1 1 1 1 1 1 0 0 1 1 1 2 2 2 2 2 2 2 2 2 2 2 2 2 2 2 2 2 1 1 1 1 1
3 3 3 3 2 2 1 1 1 1 1 1 1 0 0 0 0 0 1 1 1 1 1 1 1 2 2 2 2 2 2 2 2 2 2 2 2 2 1 1 1 1 1
2 2 2 2 2 2 1 1 1 1 1 1 1 0 0 0 0 0 1 1 1 1 1 1 1 1 2 2 2 2 2 3 2 2 2 2 2 2 1 1 1 1 1
2 2 2 2 2 1 1 1 1 1 1 1 1 0 0 0 0 0 0 1 1 1 1 1 1 1 1 2 2 2 2 3 3 3 3 2 2 2 1 1 1 1 1
1 2 2 2 2 1 1 1 1 1 1 1 1 0 0 0 0 0 0 1 1 1 1 1 1 1 1 2 2 2 2 3 3 3 3 3 2 2 1 1 1 1 1
1 1 1 1 1 1 1 1 1 1 1 1 1 0 0 0 0 0 0 1 1 1 1 1 1 1 2 2 1 1 2 2 3 3 3 3 3 2 2 1 1 1 1
1 1 1 1 1 1 1 1 1 1 1 1 1 1 0 0 0 0 0 1 1 1 1 1 1 1 2 2 2 1 1 1 2 2 3 3 3 3 2 2 2 2 1
0 1 1 1 1 1 1 1 1 1 1 1 1 1 1 0 0 0 0 0 1 1 1 1 1 1 2 2 1 1 1 1 1 1 2 2 2 3 3 2 2 2 2
0 0 1 1 1 1 1 1 1 1 1 1 1 1 1 1 0 0 0 0 0 0 1 1 1 1 1 1 1 1 1 1 1 1 1 1 1 2 3 3 2 2 2
0 0 1 1 2 1 1 1 1 1 1 1 1 1 1 1 0 0 0 0 0 0 0 0 0 0 0 0 1 1 1 1 1 1 0 0 1 1 2 2 2 2 2
0 0 1 1 1 1 1 1 1 1 1 1 1 1 1 1 0 0 0 0 0 0 0 0 0 0 0 0 0 1 1 1 1 0 0 0 0 0 1 1 2 2 2
0 0 0 1 1 1 1 1 1 1 1 1 1 1 1 1 1 0 0 0 0 0 0 0 0 0 0 0 0 0 1 1 0 0 0 0 0 0 0 1 1 1 1
0 0 0 1 1 1 1 1 1 1 1 1 1 1 1 1 1 1 0 0 0 0 0 0 0 0 0 0 0 0 0 0 0 0 0 0 0 0 0 0 0 0 1
0 0 0 0 0 0 1 1 1 1 1 1 1 1 1 1 1 1 1 0 0 0 0 0 0 0 0 0 0 0 0 0 0 0 0 0 0 0 0 0 0 0 0
0 0 0 0 0 0 0 0 1 1 1 1 1 1 1 1 1 1 1 1 0 0 0 0 0 0 0 0 0 0 0 0 0 0 0 0 0 0 0 0 0 0 0
0 0 0 1 1 0 0 0 0 1 1 1 1 1 1 1 1 1 1 1 1 1 1 0 0 0 0 0 0 0 0 0 0 0 0 0 0 0 0 0 0 0 0
0 0 0 1 0 0 0 0 0 0 0 0 0 1 1 1 1 1 1 1 1 1 1 1 1 0 0 0 0 0 0 0 0 0 0 0 0 0 0 0 0 0 0
0 0 0 0 0 0 0 0 0 0 0 0 0 0 0 1 1 1 1 1 1 1 1 1 1 1 0 0 0 0 0 0 0 0 0 0 0 0 0 0 0 0 0
0 0 0 0 0 0 0 0 0 0 0 0 0 0 0 0 1 1 1 1 1 1 1 1 1 1 1 0 0 0 0 0 0 0 0 0 0 0 0 0 0 0 0
0 0 0 0 0 0 0 0 0 0 0 0 0 0 0 0 0 1 1 1 1 1 1 1 1 1 1 0 0 0 0 0 0 0 0 0 0 0 0 0 0 0 0
1 0 0 0 0 0 0 0 0 0 0 0 0 0 0 0 0 0 0 0 1 0 0 0 0 0 0 0 0 0 0 0 0 0 0 0 0 0 0 0 0 0 0
1 1 0 0 0 0 0 0 0 0 0 0 0 0 0 0 0 0 0 0 0 0 0 0 0 0 0 0 0 0 0 0 0 0 0 0 0 0 0 0 0 0 0
Wind_Speed
2 2 1 1 1 1 1 1 1 1 1 1 2 3 3 4 3 3 2 7 8 8 8 8 8 8 8 8 7 7 7 7 8 8 9 10 10 10 11 11 12 12 12
2 2 1 1 1 1 1 1 1 1 1 1 1 2 3 3 3 3 3 4 8 8 8 8 8 8 9 9 8 7 7 7 7 7 8 9 9 10 10 10 10 11 12
2 2 2 1 1 1 1 1 1 1 0 0 0 1 1 2 3 3 3 3 3 7 9 8 8 8 8 8 8 8 8 8 7 7 8 9 9 9 9 9 9 9 10
2 2 2 1 1 1 1 1 1 1 0 0 0 1 1 1 2 3 3 3 3 3 6 9 9 9 9 9 9 9 9 8 8 8 8 9 9 10 10 10 10 10 10
2 2 2 1 1 2 1 1 1 1 0 1 1 1 1 1 2 2 3 3 4 4 4 7 10 10 10 10 10 10 10 9 9 9 9 9 9 9 10 11 11 11 10
1 2 2 2 2 2 1 1 1 0 1 1 1 1 2 2 1 2 3 3 3 4 4 5 4 6 9 9 9 10 10 10 9 9 9 10 9 9 9 10 11 11 10
1 2 2 2 2 2 2 2 1 1 0 0 1 2 3 2 1 2 2 2 3 3 4 4 4 3 4 8 9 9 10 10 10 9 9 9 9 9 9 10 10 10 10
1 1 2 2 2 2 1 1 2 1 1 1 2 1 2 4 3 2 1 2 3 2 3 4 4 4 3 3 5 9 9 9 9 9 9 8 8 8 10 10 10 10 10
1 1 2 2 2 3 2 2 2 3 1 1 2 3 2 2 2 3 2 1 1 1 2 2 3 4 5 3 4 7 8 8 9 9 9 8 8 8 9 10 11 11 10
2 2 2 2 2 2 2 3 3 3 3 1 1 1 3 3 2 2 3 2 2 2 2 2 3 3 4 3 4 6 7 8 9 9 9 9 8 9 9 9 10 11 12
1 2 2 2 2 2 3 3 2 3 3 3 2 1 1 1 2 2 2 3 2 2 2 3 2 3 3 4 4 6 8 8 9 9 9 9 9 9 10 10 9 10 11
1 1 2 2 2 2 2 3 3 3 3 3 2 2 2 2 3 3 3 3 3 3 2 2 2 2 3 4 6 8 8 8 7 7 7 7 8 8 9 10 10 10 11
1 2 2 2 2 2 2 3 3 3 3 3 3 2 2 3 3 3 3 2 2 3 2 2 2 2 3 2 4 7 7 7 7 7 7 7 7 8 9 9 10 10 10
2 2 2 3 3 3 2 2 2 3 3 3 3 3 2 3 3 3 3 3 1 2 2 3 2 2 2 2 4 6 4 6 7 7 7 7 8 9 9 10 9 9 9
2 2 2 2 2 2 2 2 1 2 2 2 2 3 2 3 3 3 3 3 3 2 3 3 2 2 2 2 4 3 4 6 8 8 8 9 8 8 9 9 10 10 9
2 1 2 2 2 2 2 2 1 1 1 2 2 2 2 2 2 2 2 2 3 4 3 3 3 3 2 2 3 3 5 7 8 9 9 9 9 9 9 9 9 10 10
2 2 2 2 2 2 2 2 2 2 2 1 1 2 2 1 1 1 1 1 2 3 3 3 2 2 2 2 2 2 3 3 4 8 9 9 10 10 10 9 9 9 10
2 2 2 2 2 2 2 2 2 2 2 2 2 1 2 1 1 1 1 1 2 2 3 3 2 2 2 2 2 3 3 3 3 6 8 8 9 9 9 9 9 9 9
2 2 2 2 2 2 2 2 2 2 2 3 2 2 2 2 1 1 1 1 1 1 2 2 2 1 1 1 1 1 2 2 3 4 6 7 8 9 9 9 9 10 10
2 2 2 2 3 2 2 2 2 2 2 2 2 3 3 3 3 2 2 2 1 1 1 1 1 1 1 1 0 1 2 2 2 2 3 4 6 8 8 9 9 10 11
3 3 2 2 2 2 2 2 3 3 3 2 2 2 3 3 4 3 2 2 2 2 1 1 1 1 1 1 1 2 2 2 2 2 1 2 2 3 5 7 9 10 11
3 2 2 2 2 2 3 4 3 2 2 3 2 2 2 2 3 3 3 3 4 3 3 2 2 2 3 2 2 2 1 1 2 2 1 2 2 3 3 4 7 9 10
3 2 2 2 2 3 3 3 4 3 3 3 3 2 2 2 2 2 3 3 3 4 6 5 4 4 4 4 3 2 2 2 4 3 1 3 2 3 3 4 7 9 10
3 3 3 3 3 3 4 3 3 2 2 2 3 3 3 3 3 2 2 1 2 3 4 4 4 5 5 4 4 4 3 2 2 2 2 2 2 3 3 3 6 8 8
3 3 3 3 3 3 4 4 3 1 1 3 3 3 3 3 4 4 2 2 2 3 4 4 5 5 5 5 4 1 1 1 2 3 1 2 2 2 3 3 4 6 7
3 3 3 3 3 3 4 4 4 2 2 2 2 3 4 4 4 4 3 3 3 4 3 2 2 2 3 4 5 4 4 3 2 3 2 2 2 1 2 3 2 2 3
Wind_Direction
157 160 167 160 176 177 178 187 186 214 226 235 213 197 197 194 202 205 203 198 195 196 198 204 207 205 202 204 207 205 206 208 208 209 209 209 210 211 210 210 208 208 208
153 157 170 168 195 205 189 171 192 196 213 220 216 196 197 191 201 200 197 201 201 198 202 205 209 210 210 211 211 212 213 211 212 212 212 213 213 212 209 207 207 209 210
155 154 159 179 206 203 179 160 151 110 126 201 231 223 209 201 201 199 196 195 202 206 207 209 211 211 213 217 218 218 217 213 215 218 219 216 215 213 210 208 205 207 210
158 151 158 191 193 149 130 134 123 109 333 315 298 266 246 228 214 205 196 194 197 207 213 215 215 214 217 220 222 220 219 216 218 221 224 222 221 218 214 211 210 210 211
165 154 160 177 145 121 115 147 84 129 152 308 282 257 252 236 228 214 202 205 207 205 205 219 221 220 220 221 223 225 224 220 220 221 226 227 225 223 219 216 214 212 212
163 145 148 155 143 130 129 152 160 174 192 238 297 314 294 275 233 214 215 214 213 212 210 215 218 224 221 221 223 227 227 224 220 220 225 226 225 223 221 220 218 217 215
170 150 157 155 155 159 181 184 161 150 254 109 61 347 327 312 274 243 225 220 225 221 206 209 210 211 222 222 222 223 226 226 222 221 224 224 223 220 222 222 220 219 217
200 183 163 169 171 170 183 191 161 149 226 151 132 89 349 342 330 301 265 227 235 228 217 219 209 208 211 206 216 218 221 224 225 225 224 223 223 222 224 223 223 220 217
191 190 179 176 177 172 187 207 188 173 201 250 158 150 154 232 306 316 295 269 253 247 241 230 215 210 207 198 207 217 216 217 223 227 226 224 222 225 226 223 223 223 220
214 192 184 181 189 187 194 207 193 184 174 205 232 185 179 173 174 298 315 307 294 272 257 248 233 222 215 205 207 205 208 211 217 222 227 229 227 227 228 225 225 228 226
235 205 187 185 197 200 203 203 189 185 180 185 192 192 182 179 182 180 272 304 314 284 259 247 238 231 222 213 212 209 207 209 212 219 223 226 229 230 229 226 227 229 230
251 223 199 203 210 207 215 212 203 197 197 190 191 185 177 181 195 187 216 255 275 281 275 257 238 235 226 214 217 214 209 211 210 215 218 220 225 229 230 228 230 233 234
241 236 225 218 219 223 228 211 199 204 200 192 198 202 200 205 190 179 186 227 257 281 288 284 248 238 230 215 223 219 212 210 210 211 215 219 227 232 232 231 231 235 237
222 226 226 225 226 219 222 206 198 207 198 204 211 204 206 217 200 191 184 184 245 290 283 268 279 248 233 215 226 221 221 220 219 218 219 223 231 233 232 231 231 234 236
222 216 218 217 230 220 216 200 194 218 200 207 216 216 214 219 208 205 194 186 184 228 267 257 258 260 243 225 228 216 223 228 223 221 222 225 229 232 234 231 229 230 232
237 218 216 210 218 220 210 187 198 223 193 214 209 203 221 228 223 217 202 197 187 186 224 246 244 258 259 246 230 220 228 233 227 226 225 225 226 230 234 234 234 232 232
223 224 222 210 212 210 204 190 204 189 191 228 226 194 221 218 209 234 217 200 198 179 211 261 263 263 246 251 260 240 228 221 230 233 230 228 228 230 231 232 237 238 236
221 223 220 210 211 203 195 189 204 202 198 218 228 198 226 210 203 227 223 231 223 202 189 228 262 263 253 242 239 238 238 230 230 237 237 238 235 232 231 232 235 237 236
227 235 220 211 212 202 194 201 204 211 208 212 208 197 209 182 204 235 220 234 244 229 171 184 237 256 271 267 283 270 263 260 248 241 238 239 237 238 238 237 237 235 236
212 224 222 215 207 200 199 210 205 206 211 220 211 203 203 189 201 213 219 229 211 196 170 167 220 273 277 287 351 270 291 273 261 259 250 240 240 245 248 246 242 240 238
221 222 214 222 224 212 213 210 207 207 205 216 233 229 217 205 201 199 198 206 185 181 177 172 223 276 288 289 263 248 260 275 271 248 257 249 232 239 247 251 248 242 239
237 224 212 209 225 239 232 218 204 205 200 201 228 254 250 239 239 231 219 203 184 179 185 186 210 219 245 241 243 241 244 287 289 264 201 260 222 243 250 241 242 239 239
226 222 220 205 221 242 231 220 209 185 187 198 207 229 257 255 242 237 249 254 244 224 200 188 201 223 227 229 221 244 234 218 239 247 185 266 257 254 260 258 249 240 238
213 213 218 215 211 238 236 232 213 183 185 205 214 217 227 248 246 218 218 250 261 258 236 212 209 225 226 222 208 217 224 240 267 269 175 239 272 263 272 265 261 250 243
223 221 217 211 214 246 241 231 201 163 203 234 232 227 221 233 244 218 193 233 268 278 267 233 220 232 237 234 217 190 216 199 284 285 215 194 256 274 280 270 267 256 246
224 224 226 220 214 233 243 231 201 177 210 248 261 259 244 241 249 225 201 208 242 263 276 306 296 293 271 262 236 205 201 200 229 269 247 186 234 239 299 283 270 266 260